• In Czech Republic
  • List of Countries
  • For 7 days
  • Water Temperature
  • Satellite Maps
  • Weather Map
  • Weather Widgets
  • user-avatar
    Login

    Hourly Weather Alcorcon

    Today, 20 June, Wednesday

    Time Temperature Precipitation Wind Pressure Humidity
    00:00 +25°C° 0 mm 3 mps 703 mmHg 43%
    01:00 +24°C° 0 mm 3 mps 703 mmHg 45%
    02:00 +24°C° 0 mm 3 mps 702 mmHg 46%
    03:00 +22°C° 0 mm 3 mps 702 mmHg 48%
    04:00 +22°C° 0 mm 3 mps 702 mmHg 49%
    05:00 +22°C° 0 mm 3 mps 703 mmHg 50%
    06:00 +22°C° 0 mm 3 mps 703 mmHg 51%
    07:00 +24°C° 0 mm 3 mps 703 mmHg 46%
    08:00 +26°C° 0 mm 3 mps 703 mmHg 41%
    09:00 +28°C° 0 mm 3 mps 703 mmHg 36%
    10:00 +29°C° 0 mm 3 mps 703 mmHg 33%
    11:00 +31°C° 0 mm 3 mps 703 mmHg 30%
    12:00 +33°C° 0 mm 3 mps 703 mmHg 26%
    13:00 +34°C° 0 mm 2 mps 703 mmHg 25%
    14:00 +34°C° 0 mm 2 mps 703 mmHg 24%
    15:00 +35°C° 0 mm 2 mps 702 mmHg 23%
    16:00 +35°C° 0 mm 2 mps 702 mmHg 23%
    17:00 +34°C° 0 mm 2 mps 702 mmHg 24%
    18:00 +34°C° 0 mm 2 mps 702 mmHg 25%
    19:00 +33°C° 0 mm 3 mps 702 mmHg 28%
    20:00 +30°C° 0 mm 3 mps 702 mmHg 31%
    21:00 +29°C° 0 mm 3 mps 703 mmHg 34%
    22:00 +28°C° 0 mm 3 mps 703 mmHg 36%
    23:00 +27°C° 0 mm 4 mps 703 mmHg 39%

    Tomorrow, 21 June, Thursday

    Time Temperature Precipitation Wind Pressure Humidity
    00:00 +26°C° 0 mm 4 mps 703 mmHg 42%
    01:00 +25°C° 0 mm 3 mps 703 mmHg 44%
    02:00 +24°C° 0 mm 3 mps 703 mmHg 46%
    03:00 +22°C° 0 mm 3 mps 703 mmHg 49%
    04:00 +22°C° 0 mm 3 mps 703 mmHg 49%
    05:00 +22°C° 0 mm 3 mps 703 mmHg 49%
    06:00 +22°C° 0 mm 3 mps 703 mmHg 50%
    07:00 +25°C° 0 mm 3 mps 703 mmHg 44%
    08:00 +27°C° 0 mm 3 mps 703 mmHg 38%
    09:00 +28°C° 0 mm 3 mps 703 mmHg 33%
    10:00 +30°C° 0 mm 3 mps 703 mmHg 31%
    11:00 +31°C° 0 mm 3 mps 703 mmHg 29%
    12:00 +33°C° 0 mm 3 mps 703 mmHg 26%
    13:00 +34°C° 0 mm 3 mps 703 mmHg 25%
    14:00 +34°C° 0 mm 3 mps 702 mmHg 23%
    15:00 +35°C° 0 mm 3 mps 702 mmHg 22%
    16:00 +35°C° 0 mm 3 mps 702 mmHg 21%
    17:00 +34°C° 0 mm 3 mps 702 mmHg 21%
    18:00 +34°C° 0 mm 3 mps 701 mmHg 21%
    19:00 +33°C° 0 mm 3 mps 702 mmHg 23%
    20:00 +30°C° 0 mm 3 mps 702 mmHg 25%
    21:00 +28°C° 0 mm 3 mps 702 mmHg 27%
    22:00 +27°C° 0 mm 3 mps 702 mmHg 30%
    23:00 +26°C° 0 mm 4 mps 702 mmHg 33%

    Day after tomorrow, 22 June, Friday

    Time Temperature Precipitation Wind Pressure Humidity
    00:00 +25°C° 0 mm 4 mps 702 mmHg 36%
    01:00 +25°C° 0 mm 4 mps 702 mmHg 39%
    02:00 +23°C° 0 mm 4 mps 702 mmHg 42%
    03:00 +22°C° 0 mm 3 mps 702 mmHg 45%
    04:00 +22°C° 0 mm 3 mps 702 mmHg 46%
    05:00 +22°C° 0 mm 3 mps 702 mmHg 47%
    06:00 +22°C° 0 mm 3 mps 702 mmHg 47%
    07:00 +25°C° 0 mm 4 mps 702 mmHg 41%
    08:00 +27°C° 0 mm 4 mps 703 mmHg 36%
    09:00 +29°C° 0 mm 4 mps 703 mmHg 30%
    10:00 +30°C° 0 mm 4 mps 703 mmHg 27%
    11:00 +33°C° 0 mm 4 mps 703 mmHg 25%
    12:00 +34°C° 0 mm 4 mps 702 mmHg 23%
    13:00 +35°C° 0 mm 3 mps 702 mmHg 21%
    14:00 +35°C° 0 mm 3 mps 702 mmHg 20%
    15:00 +36°C° 0 mm 3 mps 701 mmHg 18%
    16:00 +36°C° 0 mm 3 mps 701 mmHg 18%
    17:00 +35°C° 0 mm 2 mps 701 mmHg 18%
    18:00 +35°C° 0 mm 2 mps 701 mmHg 18%
    19:00 +32°C° 0 mm 2 mps 701 mmHg 21%
    20:00 +31°C° 0 mm 2 mps 701 mmHg 23%
    21:00 +29°C° 0 mm 2 mps 701 mmHg 25%
    22:00 +28°C° 0 mm 2 mps 702 mmHg 29%
    23:00 +27°C° 0 mm 3 mps 702 mmHg 33%

    23 June, Saturday

    Time Temperature Precipitation Wind Pressure Humidity
    00:00 +26°C° 0 mm 3 mps 702 mmHg 37%
    01:00 +25°C° 0 mm 3 mps 702 mmHg 40%
    02:00 +25°C° 0 mm 3 mps 701 mmHg 43%
    03:00 +23°C° 0 mm 4 mps 701 mmHg 46%
    04:00 +23°C° 0 mm 4 mps 701 mmHg 46%
    05:00 +23°C° 0 mm 4 mps 702 mmHg 46%
    06:00 +23°C° 0 mm 4 mps 702 mmHg 46%
    07:00 +26°C° 0 mm 4 mps 702 mmHg 41%
    08:00 +28°C° 0 mm 4 mps 702 mmHg 35%
    09:00 +30°C° 0 mm 4 mps 702 mmHg 30%
    10:00 +31°C° 0 mm 3 mps 702 mmHg 27%
    11:00 +33°C° 0 mm 3 mps 702 mmHg 25%
    12:00 +35°C° 0 mm 3 mps 702 mmHg 22%
    13:00 +36°C° 0 mm 3 mps 702 mmHg 20%
    14:00 +36°C° 0 mm 3 mps 701 mmHg 19%
    15:00 +37°C° 0 mm 3 mps 701 mmHg 17%
    16:00 +37°C° 0 mm 2 mps 701 mmHg 17%
    17:00 +37°C° 0 mm 2 mps 701 mmHg 17%
    18:00 +36°C° 0 mm 2 mps 700 mmHg 17%
    19:00 +35°C° 0 mm 3 mps 701 mmHg 20%
    20:00 +33°C° 0 mm 3 mps 701 mmHg 22%
    21:00 +30°C° 0 mm 3 mps 701 mmHg 25%
    22:00 +29°C° 0 mm 3 mps 701 mmHg 28%
    23:00 +28°C° 0 mm 4 mps 701 mmHg 32%

    24 June, Sunday

    Time Temperature Precipitation Wind Pressure Humidity
    00:00 +27°C° 0 mm 4 mps 701 mmHg 35%
    01:00 +26°C° 0 mm 4 mps 700 mmHg 38%
    02:00 +25°C° 0 mm 4 mps 700 mmHg 41%
    03:00 +25°C° 0 mm 4 mps 700 mmHg 44%
    04:00 +23°C° 0 mm 4 mps 700 mmHg 47%
    05:00 +23°C° 0 mm 4 mps 700 mmHg 49%
    06:00 +24°C° 0 mm 3 mps 700 mmHg 52%
    07:00 +26°C° 0 mm 3 mps 701 mmHg 46%
    08:00 +28°C° 0 mm 3 mps 701 mmHg 41%
    09:00 +29°C° 0 mm 3 mps 701 mmHg 35%
    10:00 +31°C° 0 mm 2 mps 701 mmHg 31%
    11:00 +34°C° 0 mm 2 mps 701 mmHg 28%
    12:00 +35°C° 0 mm 2 mps 701 mmHg 24%
    13:00 +36°C° 0 mm 2 mps 701 mmHg 22%
    14:00 +37°C° 0 mm 2 mps 701 mmHg 20%
    15:00 +37°C° 0 mm 3 mps 700 mmHg 18%
    16:00 +37°C° 0 mm 3 mps 700 mmHg 19%
    17:00 +36°C° 0 mm 3 mps 700 mmHg 21%
    18:00 +36°C° 0 mm 3 mps 700 mmHg 22%
    19:00 +34°C° 0.1 mm 3 mps 700 mmHg 28%
    20:00 +31°C° 0.1 mm 3 mps 700 mmHg 33%
    21:00 +29°C° 0.1 mm 3 mps 701 mmHg 39%
    22:00 +28°C° 0.2 mm 3 mps 701 mmHg 42%
    23:00 +27°C° 0.2 mm 3 mps 701 mmHg 45%

    25 June, Monday

    Time Temperature Precipitation Wind Pressure Humidity
    00:00 +26°C° 0.2 mm 3 mps 701 mmHg 48%
    01:00 +26°C° 0 mm 2 mps 701 mmHg 50%
    02:00 +25°C° 0 mm 2 mps 700 mmHg 52%
    03:00 +25°C° 0 mm 2 mps 700 mmHg 54%
    04:00 +25°C° 0 mm 2 mps 700 mmHg 54%
    05:00 +25°C° 0 mm 1 mps 701 mmHg 54%
    06:00 +25°C° 0 mm 1 mps 701 mmHg 54%
    07:00 +26°C° 0 mm 2 mps 701 mmHg 49%
    08:00 +28°C° 0 mm 2 mps 701 mmHg 43%
    09:00 +30°C° 0 mm 2 mps 701 mmHg 38%
    10:00 +31°C° 0 mm 3 mps 701 mmHg 34%
    11:00 +33°C° 0 mm 3 mps 701 mmHg 30%
    12:00 +35°C° 0 mm 4 mps 701 mmHg 27%
    13:00 +35°C° 0 mm 4 mps 701 mmHg 26%
    14:00 +35°C° 0 mm 4 mps 701 mmHg 26%
    15:00 +35°C° 0 mm 4 mps 701 mmHg 25%
    16:00 +35°C° 0 mm 4 mps 701 mmHg 26%
    17:00 +35°C° 0 mm 4 mps 701 mmHg 27%
    18:00 +34°C° 0 mm 4 mps 701 mmHg 27%
    19:00 +33°C° 0 mm 4 mps 701 mmHg 31%
    20:00 +30°C° 0 mm 3 mps 702 mmHg 34%
    21:00 +29°C° 0 mm 3 mps 702 mmHg 37%
    22:00 +28°C° 0.1 mm 3 mps 702 mmHg 41%
    23:00 +27°C° 0.1 mm 2 mps 702 mmHg 44%
    Show more